DW1105 Weather Reports


Display with metric or nautical units.
time (UTC)temp
F
wind
direction
speed
MPH
gust
MPH
rain 1hr
in
rain 24hr
in
rain mn
in
humidity
%
barometer
mb
20260509051312 51 355 0.0 0.0 0.00 0.04 0.00 85 1012.9
20260509050829 51 355 0.0 0.0 0.00 0.04 0.00 85 1012.7
20260509050325 51 355 0.0 0.0 0.00 0.04 0.00 84 1012.7
20260509045821 51 355 0.0 0.0 0.00 0.04 0.00 83 1012.6
20260509045317 51 355 0.0 0.0 0.00 0.04 0.00 82 1012.6
20260509044814 51 355 0.0 0.0 0.00 0.04 0.00 83 1012.7
20260509044315 51 355 0.0 0.0 0.00 0.04 0.00 82 1012.7
20260509043831 51 355 0.0 0.0 0.00 0.04 0.00 82 1012.8
20260509043327 51 355 0.0 0.0 0.00 0.04 0.00 82 1012.8
20260509042823 51 355 0.0 0.0 0.00 0.04 0.00 82 1012.7
20260509042319 51 355 0.0 1.0 0.00 0.04 0.00 82 1012.7
20260509041816 51 355 0.0 1.0 0.00 0.04 0.00 82 1012.7
20260509041311 51 355 0.0 0.0 0.00 0.04 0.00 81 1012.6
20260509040811 51 355 0.0 0.0 0.00 0.04 0.00 81 1012.6
20260509040329 51 355 0.0 0.0 0.00 0.04 0.00 80 1012.8
20260509035824 51 355 0.0 0.0 0.00 0.04 0.04 80 1012.9
20260509035320 51 355 0.0 0.0 0.00 0.04 0.04 80 1012.9
20260509034817 51 355 0.0 0.0 0.00 0.04 0.04 80 1012.9
20260509034313 51 355 0.0 0.0 0.00 0.04 0.04 79 1012.7
20260509033830 51 355 0.0 0.0 0.00 0.04 0.04 79 1012.6
20260509033330 52 355 0.0 0.0 0.00 0.04 0.04 78 1012.6
20260509032825 52 355 0.0 0.0 0.00 0.04 0.04 78 1012.7
20260509032323 52 355 0.0 0.0 0.00 0.04 0.04 78 1012.7
20260509031820 52 355 0.0 0.0 0.00 0.04 0.04 77 1012.7
20260509031316 52 355 0.0 0.0 0.00 0.04 0.04 78 1012.8
20260509030812 52 355 0.0 0.0 0.00 0.04 0.04 78 1012.9
20260509030328 52 355 0.0 0.0 0.00 0.04 0.04 78 1012.9
20260509025828 52 355 0.0 1.0 0.00 0.04 0.04 78 1012.8
20260509025325 52 355 0.0 1.0 0.00 0.04 0.04 78 1012.9
20260509024821 52 355 0.0 0.0 0.00 0.04 0.04 77 1012.9
20260509024317 52 355 0.0 0.0 0.00 0.04 0.04 77 1012.9
20260509023813 53 355 0.0 0.0 0.00 0.04 0.04 77 1012.9
20260509023330 53 355 0.0 0.0 0.00 0.04 0.04 76 1012.8
20260509022826 52 355 0.0 0.0 0.00 0.04 0.04 75 1012.8
20260509022326 52 355 0.0 0.0 0.00 0.04 0.04 75 1012.8
20260509021823 52 355 0.0 0.0 0.00 0.04 0.04 75 1012.7
20260509021319 52 355 0.0 0.0 0.00 0.04 0.04 75 1012.7
20260509020815 52 355 0.0 0.0 0.00 0.04 0.04 74 1012.6
20260509020312 52 355 0.0 0.0 0.00 0.04 0.04 75 1012.6
20260509015828 52 355 0.0 0.0 0.00 0.04 0.04 75 1012.5
20260509015325 52 355 0.0 0.0 0.00 0.04 0.04 75 1012.4
20260509014825 52 355 0.0 0.0 0.00 0.04 0.04 75 1012.3
20260509014320 52 355 0.0 0.0 0.00 0.04 0.04 75 1012.3
20260509013816 52 355 0.0 0.0 0.00 0.04 0.04 75 1012.3
20260509013313 52 355 0.0 0.0 0.00 0.04 0.04 74 1012.2
20260509012829 52 355 0.0 0.0 0.00 0.04 0.04 74 1012.2
20260508194330 57 120 1.0 6.0 0.00 0.04 0.04 64 1010.8
20260508193827 57 242 1.0 4.0 0.00 0.04 0.04 56 1010.8
20260508193324 57 46 1.0 4.0 0.00 0.04 0.04 54 1010.8
20260508192824 58 319 0.0 10.0 0.00 0.04 0.04 57 1010.8
20260508192321 58 341 4.0 10.0 0.00 0.04 0.04 52 1010.7
20260508191817 58 346 3.0 9.0 0.00 0.04 0.04 52 1010.7
20260508191314 58 349 5.0 11.0 0.00 0.04 0.04 52 1010.8
20260508190831 58 338 4.0 14.0 0.00 0.04 0.04 49 1010.8
20260508190328 59 226 5.0 14.0 0.00 0.04 0.04 48 1010.7
20260508185824 60 320 2.0 10.0 0.00 0.04 0.04 47 1010.6
20260508185324 61 338 5.0 10.0 0.00 0.04 0.04 44 1010.6
20260508184840 61 333 4.0 10.0 0.00 0.04 0.04 46 1010.8
20260508184318 59 205 3.0 14.0 0.00 0.04 0.04 47 1010.8
20260508183814 59 49 6.0 14.0 0.00 0.04 0.04 49 1010.8
20260508183312 59 259 2.0 8.0 0.00 0.04 0.04 47 1010.9
20260508182828 59 318 2.0 9.0 0.00 0.04 0.04 47 1010.9
20260508182324 59 300 3.0 17.0 0.00 0.04 0.04 47 1010.8
20260508181820 59 304 4.0 17.0 0.00 0.04 0.04 46 1010.8
20260508181321 60 241 5.0 14.0 0.00 0.04 0.04 44 1010.9
20260508180818 61 311 5.0 12.0 0.00 0.04 0.04 43 1010.8
20260508180314 61 226 5.0 12.0 0.00 0.04 0.04 44 1010.7
20260508175812 61 259 2.0 11.0 0.00 0.04 0.04 45 1010.6
20260508175328 60 360 6.0 10.0 0.00 0.04 0.04 46 1010.8
20260508174825 61 20 2.0 16.0 0.00 0.04 0.04 44 1010.8
20260508174342 60 355 5.0 16.0 0.00 0.04 0.04 46 1010.9
20260508173822 60 292 6.0 14.0 0.00 0.04 0.04 45 1011.0
20260508173319 60 344 5.0 14.0 0.00 0.04 0.04 47 1011.0
20260508172816 59 174 4.0 13.0 0.00 0.04 0.04 48 1011.1
20260508172314 59 360 4.0 13.0 0.00 0.04 0.04 49 1011.1
20260508171830 58 355 3.0 11.0 0.00 0.04 0.04 49 1011.3
20260508171327 58 288 4.0 9.0 0.00 0.04 0.04 49 1011.2
20260508170824 58 360 4.0 15.0 0.00 0.04 0.04 49 1011.3
20260508170325 59 342 6.0 15.0 0.00 0.04 0.04 47 1011.4
20260508165821 60 346 7.0 15.0 0.00 0.04 0.04 45 1011.4
20260508165339 60 333 2.0 8.0 0.00 0.04 0.04 45 1011.2
20260508164815 60 210 3.0 20.0 0.00 0.04 0.04 48 1011.3
20260508164333 58 302 8.0 20.0 0.00 0.04 0.04 51 1011.5
20260508163829 59 294 4.0 16.0 0.00 0.04 0.04 46 1011.5
20260508163326 58 9 3.0 13.0 0.00 0.04 0.04 48 1011.6
20260508161314 57 360 5.0 11.0 0.00 0.04 0.04 50 1011.8
20260508160831 57 333 5.0 10.0 0.00 0.04 0.04 50 1012.0
20260508160327 58 218 3.0 9.0 0.00 0.04 0.04 49 1012.0
20260508155824 58 192 2.0 14.0 0.00 0.04 0.04 48 1011.9
20260508155341 57 349 4.0 14.0 0.00 0.04 0.04 51 1012.0
20260508154816 56 298 2.0 10.0 0.00 0.04 0.04 50 1011.7
20260508154312 56 329 4.0 10.0 0.00 0.04 0.04 49 1012.0
20260508153813 55 188 2.0 11.0 0.00 0.04 0.04 53 1012.2
20260508153329 55 307 5.0 11.0 0.00 0.04 0.04 50 1012.3
20260508152825 54 265 2.0 11.0 0.00 0.04 0.04 51 1012.3
20260508152342 55 331 5.0 12.0 0.00 0.04 0.04 50 1012.3
20260508151817 56 313 4.0 12.0 0.00 0.04 0.04 49 1012.3
20260508151314 56 303 2.0 6.0 0.00 0.04 0.04 49 1012.3
20260508150831 57 14 1.0 10.0 0.00 0.04 0.04 47 1012.2
20260508150311 58 112 2.0 10.0 0.00 0.04 0.04 48 1012.1
20260508145827 57 313 4.0 14.0 0.00 0.04 0.04 50 1012.0
20260508145323 57 344 3.0 8.0 0.00 0.04 0.04 48 1012.0
20260508144819 57 144 3.0 7.0 0.00 0.04 0.04 49 1011.9
20260508144316 56 348 3.0 8.0 0.00 0.04 0.04 52 1011.9
20260508143812 54 76 4.0 10.0 0.00 0.04 0.04 51 1012.0
20260508143328 54 350 6.0 10.0 0.00 0.04 0.04 51 1012.0
20260508142824 55 5 4.0 10.0 0.00 0.04 0.04 52 1012.2
20260508142324 54 321 2.0 9.0 0.00 0.04 0.04 54 1012.2
20260508141820 54 330 4.0 9.0 0.00 0.04 0.04 55 1012.1
20260508141315 54 190 1.0 4.0 0.00 0.04 0.04 54 1012.0
20260508140811 54 202 2.0 5.0 0.00 0.04 0.04 57 1012.0
20260508140328 54 270 3.0 8.0 0.00 0.04 0.04 54 1012.1
20260508135824 54 289 2.0 8.0 0.00 0.04 0.04 53 1012.1
20260508135319 54 301 3.0 10.0 0.00 0.04 0.04 57 1012.2
20260508134819 53 341 5.0 10.0 0.00 0.04 0.04 58 1012.3
20260508134315 53 263 3.0 6.0 0.00 0.04 0.04 56 1012.5
20260508133811 53 311 3.0 6.0 0.00 0.04 0.04 58 1012.5
20260508133327 52 238 2.0 5.0 0.00 0.04 0.04 58 1012.4
20260508132822 53 355 2.0 5.0 0.00 0.04 0.04 62 1012.5
20260508132318 52 210 1.0 5.0 0.01 0.04 0.04 61 1012.6
20260508131815 52 337 3.0 9.0 0.01 0.04 0.04 62 1012.5
20260508131316 52 208 2.0 9.0 0.01 0.04 0.04 66 1012.4
20260508130812 51 341 2.0 8.0 0.01 0.04 0.04 64 1012.3
20260508130329 51 240 1.0 8.0 0.01 0.04 0.04 65 1012.5
20260508125824 51 334 2.0 9.0 0.01 0.04 0.04 66 1012.4
20260508125320 50 338 2.0 9.0 0.01 0.04 0.04 67 1012.4
20260508124817 50 360 4.0 13.0 0.01 0.04 0.04 68 1012.4
20260508124312 50 333 7.0 13.0 0.01 0.04 0.04 68 1012.5
20260508123813 50 346 3.0 8.0 0.01 0.04 0.04 70 1012.5
20260508123329 49 316 3.0 9.0 0.01 0.04 0.04 72 1012.5
20260508122824 49 11 4.0 9.0 0.01 0.04 0.04 71 1012.5
20260508122320 49 351 1.0 10.0 0.00 0.03 0.03 75 1012.6
20260508121816 49 13 4.0 10.0 0.00 0.03 0.03 77 1012.5
20260508121311 48 343 1.0 5.0 0.00 0.03 0.03 79 1012.6
20260508120828 48 292 0.0 4.0 0.00 0.03 0.03 81 1012.5
20260508120328 48 294 1.0 4.0 0.00 0.03 0.03 83 1012.4
20260508115824 47 314 2.0 5.0 0.00 0.03 0.03 84 1012.6
20260508115321 47 304 2.0 7.0 0.00 0.03 0.03 84 1012.5
20260508114816 46 248 1.0 5.0 0.00 0.03 0.03 85 1012.6
20260508114312 46 271 0.0 4.0 0.00 0.03 0.03 87 1012.5
20260508113829 46 290 0.0 4.0 0.00 0.03 0.03 87 1012.5
20260508113324 45 268 1.0 3.0 0.00 0.03 0.03 88 1012.4
20260508112824 45 275 1.0 3.0 0.00 0.03 0.03 89 1012.4
20260508112320 45 320 1.0 3.0 0.00 0.03 0.03 90 1012.4
20260508111817 44 331 0.0 3.0 0.00 0.03 0.03 90 1012.2
20260508111314 44 321 0.0 4.0 0.00 0.03 0.03 90 1012.1
20260508110830 44 5 0.0 3.0 0.00 0.03 0.03 91 1012.1
20260508110326 44 5 1.0 3.0 0.00 0.03 0.03 91 1012.1
20260508105822 44 355 2.0 3.0 0.00 0.03 0.03 91 1012.0
20260508105323 43 360 1.0 3.0 0.00 0.03 0.03 92 1012.1
20260508104819 43 346 1.0 3.0 0.00 0.03 0.03 92 1012.0
20260508104314 43 331 2.0 3.0 0.00 0.03 0.03 92 1011.9
20260508103830 43 323 1.0 3.0 0.00 0.03 0.03 92 1011.8
20260508103327 43 349 1.0 2.0 0.00 0.03 0.03 92 1011.9
20260508102823 42 285 0.0 0.0 0.00 0.03 0.03 92 1011.9
20260508102319 42 285 0.0 0.0 0.00 0.03 0.03 92 1011.9
20260508101819 42 285 0.0 0.0 0.00 0.03 0.03 92 1011.8
20260508101314 42 285 0.0 0.0 0.00 0.03 0.03 91 1011.7
20260508100830 42 285 0.0 0.0 0.00 0.03 0.03 91 1011.6
20260508100327 42 285 0.0 0.0 0.00 0.03 0.03 91 1011.4
20260508095824 42 285 0.0 0.0 0.00 0.03 0.03 91 1011.4
20260508095320 42 285 0.0 0.0 0.00 0.03 0.03 91 1011.4
20260508094816 42 285 0.0 0.0 0.00 0.03 0.03 91 1011.5
20260508094315 42 285 0.0 0.0 0.00 0.03 0.03 91 1011.5
20260508093811 42 285 0.0 0.0 0.00 0.03 0.03 90 1011.6
20260508093328 42 285 0.0 0.0 0.00 0.03 0.03 90 1011.5
20260508092824 43 285 0.0 0.0 0.00 0.03 0.03 90 1011.4
20260508092321 43 285 0.0 0.0 0.00 0.03 0.03 90 1011.4
20260508091816 43 285 0.0 0.0 0.00 0.03 0.03 90 1011.5
20260508091311 43 285 0.0 0.0 0.00 0.03 0.03 90 1011.2
20260508090812 43 285 0.0 0.0 0.00 0.03 0.03 90 1011.2
20260508090327 43 285 0.0 0.0 0.00 0.03 0.03 90 1011.2
20260508085824 43 264 0.0 0.0 0.00 0.03 0.03 90 1011.3
20260508085320 44 264 0.0 0.0 0.01 0.03 0.03 90 1011.2
20260508084816 44 261 0.0 3.0 0.02 0.03 0.03 90 1011.2
20260508084312 44 261 1.0 3.0 0.02 0.03 0.03 90 1011.2
20260508083828 44 318 0.0 0.0 0.02 0.03 0.03 90 1011.0
20260508083325 44 318 0.0 0.0 0.02 0.03 0.03 90 1010.9
20260508082824 44 318 0.0 0.0 0.02 0.03 0.03 89 1010.8
20260508082321 45 318 0.0 2.0 0.02 0.03 0.03 89 1010.8
20260508081817 44 318 0.0 2.0 0.02 0.03 0.03 89 1010.9
20260508081313 44 313 0.0 0.0 0.02 0.03 0.03 88 1010.8
20260508080829 45 313 0.0 0.0 0.02 0.03 0.03 87 1010.7
20260508080326 45 313 0.0 0.0 0.02 0.03 0.03 86 1010.8
20260508075821 45 313 0.0 4.0 0.02 0.04 0.03 85 1011.1
20260508075321 46 313 1.0 5.0 0.01 0.03 0.02 84 1011.3
20260508074818 46 339 2.0 5.0 0.00 0.02 0.01 84 1011.4
20260508074314 46 329 0.0 5.0 0.00 0.02 0.01 83 1011.5
20260508073830 46 323 1.0 5.0 0.00 0.02 0.01 83 1011.4
20260508073327 46 281 2.0 5.0 0.00 0.02 0.01 82 1011.3
20260508072822 46 308 1.0 6.0 0.00 0.02 0.01 82 1011.0
20260508072318 46 298 2.0 8.0 0.00 0.02 0.01 82 1010.9
20260508071818 46 307 3.0 8.0 0.00 0.02 0.01 82 1010.9
20260508071314 46 317 4.0 8.0 0.00 0.02 0.01 83 1010.9
20260508070811 46 9 3.0 5.0 0.00 0.02 0.01 84 1010.8
20260508070328 46 11 1.0 6.0 0.00 0.02 0.01 84 1010.7
20260508065824 46 315 2.0 6.0 0.00 0.11 0.01 84 1010.8
20260508065320 46 327 2.0 4.0 0.00 0.11 0.01 84 1010.8
20260508064815 46 9 0.0 3.0 0.00 0.11 0.01 84 1010.9
20260508064315 46 360 1.0 4.0 0.01 0.11 0.01 84 1010.9
20260508063812 46 311 1.0 4.0 0.01 0.11 0.01 83 1010.8
20260508063328 46 340 2.0 4.0 0.01 0.11 0.01 83 1010.7
20260508062824 46 340 2.0 4.0 0.01 0.11 0.01 82 1010.7
20260508062320 46 5 2.0 4.0 0.01 0.11 0.01 81 1010.8
20260508061816 46 76 1.0 2.0 0.01 0.11 0.01 81 1010.9
20260508061312 47 42 0.0 3.0 0.01 0.11 0.01 80 1010.9
20260508060812 47 5 1.0 4.0 0.01 0.11 0.01 80 1010.9
20260508060329 47 308 2.0 6.0 0.01 0.11 0.01 79 1011.1
20260508055825 47 293 3.0 9.0 0.01 0.15 0.01 78 1011.1
20260508055320 47 5 3.0 11.0 0.01 0.15 0.01 77 1011.3
20260508054817 48 350 4.0 13.0 0.01 0.15 0.01 75 1011.3
20260508054313 49 338 4.0 13.0 0.00 0.14 0.00 72 1011.2
20260508053829 50 261 4.0 12.0 0.00 0.14 0.00 67 1011.2
20260508053330 50 360 3.0 8.0 0.00 0.14 0.00 64 1011.0
20260508052826 50 307 2.0 5.0 0.00 0.14 0.00 65 1010.8
20260508052322 49 288 1.0 5.0 0.00 0.14 0.00 69 1010.6
20260508051819 49 340 2.0 5.0 0.00 0.14 0.00 73 1010.4